www.pogodaiklimat.ru

Погода и климат >> Архив погоды >> Франция >> Бискарросс


ПОГОДА в Бискарроссе

  • Прогноз погоды в Бискарроссе
  • Монитор погоды в Бискарроссе

АРХИВ ПОГОДЫ в Бискарроссе

Время (UTC), дата Ветер
(напр.,м/с)
 
Видим.   Явления Облачность Т
(С)
Тd
(С)
f
(%)
Тe
(С)
Тes
(С)
Комфортность P
(гПа)
Po
(гПа)
Тmin
(С)
Tmax
(С)
R
(мм)
R24
(мм)
S
(см)
22 18.05 штиль 0 15 км н/о +10.6 +9.0 90 +10 +10 1010.3 1005.6
23 18.05 В 1 16 км 10/6 720 м
[]
+9.8 +8.2 90 +10 +10 1010.3 1005.6
00 19.05 ЮВ 1
{1}
15 км н/о +9.0 +7.8 92 +9 +9 1010.2 1005.5
01 19.05 штиль 0 11 км 10/3 1140 м
[]
+10.0 +8.9 93 +9 +9 1010.0 1005.3
02 19.05 СЗ 2 11 км 10/3 630 м
[]
+10.9 +9.7 92 +10 +10 1009.9 1005.2 0.0
03 19.05 штиль 0
{4}
8000 м слаб. дождь 10/10 300 м
[]
+10.8 +9.9 94 +10 +10 1009.9 1005.2 0.2
04 19.05 Ю 1 10 км морось 10/6 660 м
[]
+10.7 +9.8 94 +11 +11 1009.9 1005.2 0.0
05 19.05 штиль 0 2800 м слаб. дождь 10/10 420 м
[]
+10.8 +10.0 95 +10 +10 1010.1 1005.4 0.4
06 19.05 Ю 1
{3}
3600 м дымка 10/10 300 м
[]
+11.3 +10.7 96 +11 +11 1010.2 1005.5 +9.0 +14.7 1
07 19.05 З 1 5000 м слаб. морось 10/10 1230 м
[]
+12.2 +11.6 96 +13 +13 1010.5 1005.8 0.2
08 19.05 З 2 12 км 10/6 240 м
[]
+13.0 +12.4 96 +12 +14 1010.8 1006.1 0.0
09 19.05 СЗ 3
{6}
19 км слаб. дождь 10/10 200 м
[]
+12.5 +10.7 89 +11 +11 1011.2 1006.5 0.4
10 19.05 СЗ 3 19 км слаб. дождь 10/6 270 м
[]
+12.8 +11.5 92 +12 +14 1011.6 1006.9 1
11 19.05 СЗ 2 8000 м слаб. дождь 10/6 210 м
[]
+12.3 +11.2 93 +12 +15 1011.7 1007.0 2
12 19.05 С 1
{5}
17 км 10/10 100 м
[]
+11.8 +10.9 94 +12 +12 1012.1 1007.4 9
13 19.05 СЗ 4 14 км 10/10 480 м
[]
+14.4 +12.6 89 +13 +13 1012.1 1007.5
14 19.05 СЗ 4 16 км 10/9 450 м
[]
+15.4 +12.3 82 +14 +15 1012.4 1007.8
15 19.05 СЗ 4
{10}
19 км 10/10 600 м
[]
+15.2 +10.8 75 +14 +14 1012.7 1008.1
16 19.05 СЗ 4 19 км 8/8 600 м
[]
+15.8 +11.8 77 +15 +16 1012.8 1008.2
17 19.05 СЗ 4 19 км н/о +15.4 +11.4 77 +14 +14 1012.7 1008.1
18 19.05 СЗ 4
{11}
19 км н/о +14.2 +10.8 80 +13 +13 1013.1 1008.4 +11.3 +16.1
19 19.05 СЗ 4 19 км 9/8 540 м
[]
+13.7 +9.9 78 +12 +12 1013.6 1008.9
20 19.05 СЗ 5 20 км 8/4 570 м
[]
+13.4 +10.0 80 +12 +12 1013.9 1009.2
21 19.05 СЗ 4
{10}
20 км 10/10 300 м
[]
+13.3 +10.1 81 +12 +12 1014.5 1009.8
22 19.05 СЗ 4 20 км 8/3 600 м
[]
+13.2 +9.8 80 +11 +11 1014.5 1009.8
23 19.05 З 4 19 км 10/8 540 м
[]
+13.2 +10.2 82 +11 +11 1014.4 1009.7
00 20.05 З 4
{10}
20 км 9/9 300 м
[]
+13.3 +10.1 81 +12 +12 1014.3 1009.6
01 20.05 З 4 20 км 10/10 540 м
[]
+13.4 +10.4 82 +12 +12 1013.9 1009.2
02 20.05 З 4 19 км 10/10 540 м
[]
+13.5 +10.8 84 +12 +12 1013.7 1009.0
03 20.05 З 4
{10}
20 км 10/10 300 м
[]
+13.5 +10.8 84 +12 +12 1013.6 1008.9
04 20.05 З 4 19 км слаб. дождь 10/9 480 м
[]
+13.2 +10.6 84 +12 +12 1013.5 1008.8 0.0
05 20.05 З 4 17 км 10/9 450 м
[]
+13.5 +11.4 87 +12 +12 1013.6 1008.9 0.0
06 20.05 З 3
{9}
17 км 10/10 300 м
[]
+13.5 +12.1 91 +12 +12 1014.2 1009.5 +12.9 +14.2 0.4
07 20.05 СЗ 2 19 км н/о +13.9 +11.2 84 +13 +13 1014.8 1010.1
08 20.05 СЗ 3 19 км 10/4 450 м
[]
+14.4 +11.5 83 +14 +16 1015.3 1010.6
09 20.05 СЗ 3
{7}
19 км 10/10 300 м
[]
+15.1 +11.3 78 +15 +18 1015.6 1010.9
10 20.05 З 3 19 км 10/1 400 м
[]
+15.4 +11.8 79 +15 +21 1015.4 1010.8
11 20.05 СЗ 3 19 км 9/4 400 м
[]
+16.1 +11.7 75 +16 +21 1015.6 1011.0
12 20.05 СЗ 3
{8}
19 км 8/8 300 м
[]
+17.3 +12.6 74 +17 +20 1015.6 1011.0
13 20.05 СЗ 3 19 км н/о +16.9 +11.8 72 +17 +17 1015.7 1011.1
14 20.05 СЗ 3 20 км 9/9 480 м
[]
+16.3 +11.0 71 +16 +18 1015.8 1011.2
15 20.05 СЗ 3
{7}
20 км 9/9 300 м
[]
+16.4 +12.0 75 +16 +17 1015.7 1011.1
16 20.05 СЗ 3 20 км 9/9 480 м
[]
+15.8 +11.2 74 +15 +16 1016.0 1011.4
17 20.05 СЗ 3 20 км 8/8 500 м
[]
+16.0 +10.7 71 +16 +17 1016.1 1011.5
18 20.05 СЗ 2
{6}
20 км 9/9 300 м
[]
+15.3 +10.5 73 +15 +15 1016.4 1011.7 +13.3 +17.7
19 20.05 СЗ 2 20 км н/о +14.3 +10.5 78 +14 +14 1016.5 1011.8
20 20.05 СЗ 3 20 км 9/9 540 м
[]
+13.8 +10.4 80 +13 +13 1016.9 1012.2
21 20.05 С 2
{7}
20 км 9/9 600 м
[]
+13.7 +9.5 76 +13 +13 1017.7 1013.0
22 20.05 С 2 20 км 10/10 660 м
[]
+13.3 +9.5 78 +13 +13 1017.7 1013.0
23 20.05 С 1 20 км н/о +11.9 +8.9 82 +12 +12 1017.6 1012.9
00 21.05 СВ 1
{3}
20 км н/о +11.0 +8.7 86 +12 +12 1017.3 1012.6
01 21.05 штиль 0 20 км н/о +10.1 +8.7 91 +9 +9 1017.2 1012.5
02 21.05 СВ 1 20 км 10/10 630 м
[]
+11.0 +9.1 88 +12 +12 1017.3 1012.6
03 21.05 СВ 1
{2}
20 км 10/10 600 м
[]
+11.5 +9.4 87 +12 +12 1017.5 1012.8
04 21.05 В 1 20 км 10/10 720 м
[]
+11.7 +9.8 88 +12 +12 1017.6 1012.9
05 21.05 ЮВ 1 20 км 10/10 750 м
[]
+11.6 +9.8 89 +12 +12 1018.1 1013.4
06 21.05 ЮВ 1
{2}
19 км 9/9 600 м
[]
+13.2 +11.3 88 +14 +14 1018.5 1013.8 +9.6 +15.3
07 21.05 З 1 20 км 9/9 720 м
[]
+14.2 +10.6 79 +15 +16 1018.8 1014.1
08 21.05 З 1 20 км 9/9 870 м
[]
+15.1 +10.7 75 +16 +17 1019.1 1014.4
09 21.05 СЗ 2
{4}
20 км 10/10 600 м
[]
+16.4 +10.0 66 +17 +17 1019.5 1014.8
10 21.05 СЗ 2 20 км н/о +16.5 +10.6 68 +17 +17 1019.8 1015.1
11 21.05 СЗ 2 20 км н/о +16.8 +10.9 68 +17 +17 1019.8 1015.2
12 21.05 СЗ 3
{6}
20 км н/о +16.9 +10.0 64 +17 +17 1019.7 1015.1
13 21.05 СЗ 3 20 км н/о +17.2 +10.8 66 +17 +17 1019.5 1014.9
14 21.05 СЗ 3 20 км н/о +17.3 +11.1 67 +17 +17 1019.4 1014.8
15 21.05 СЗ 3
{8}
20 км н/о +17.2 +11.2 68 +17 +17 1019.3 1014.7
16 21.05 СЗ 4 20 км н/о +16.9 +11.8 72 +17 +17 1019.3 1014.7
17 21.05 СЗ 4 20 км н/о +16.9 +11.8 72 +17 +17 1019.2 1014.6
18 21.05 С 4
{9}
20 км н/о +16.6 +12.1 75 +16 +16 1019.2 1014.6 +13.2 +17.9
19 21.05 С 3 20 км н/о +16.0 +11.8 76 +16 +16 1019.6 1014.9
20 21.05 С 1 20 км н/о +14.5 +11.1 80 +15 +15 1019.7 1015.0
21 21.05 СВ 1
{4}
20 км н/о +13.5 +11.0 85 +14 +14 1020.4 1015.7
22 21.05 СВ 1 20 км 9/9 2000 м
[]
+13.2 +10.6 84 +13 +13 1020.3 1015.6
23 21.05 штиль 0 20 км н/о +12.4 +10.3 87 +12 +12 1020.1 1015.4
00 22.05 С 1
{2}
20 км н/о +12.2 +10.8 91 +12 +12 1020.1 1015.4
01 22.05 СВ 1 20 км н/о +11.4 +10.1 92 +11 +11 1019.9 1015.2
02 22.05 С 1 20 км н/о +10.8 +9.6 92 +11 +11 1019.9 1015.2
03 22.05 штиль 0
{2}
19 км н/о +10.3 +9.2 93 +10 +10 1019.9 1015.1
04 22.05 СВ 1 20 км н/о +10.1 +8.7 91 +10 +10 1019.8 1015.0
05 22.05 СВ 1 19 км н/о +10.3 +9.1 92 +11 +11 1019.9 1015.1
06 22.05 штиль 0
{2}
16 км н/о +11.9 +11.1 95 +11 +11 1020.1 1015.4 +9.9 +16.6
07 22.05 ЮЗ 1 17 км н/о +14.5 +13.0 91 +15 +15 1020.4 1015.7
08 22.05 З 1 18 км н/о +16.2 +13.1 82 +18 +18 1020.5 1015.8
09 22.05 З 1
{3}
19 км н/о +16.7 +12.4 76 +18 +18 1020.3 1015.7
10 22.05 СЗ 1 19 км н/о +17.9 +13.0 73 +19 +19 1020.5 1015.9
11 22.05 СЗ 2 19 км н/о +18.3 +13.6 74 +19 +19 1020.3 1015.7
12 22.05 СЗ 2
{5}
19 км н/о +18.3 +13.4 73 +19 +19 1020.0 1015.4
13 22.05 СЗ 2 20 км н/о +20.1 +14.2 69 +23 +23 комфорт 1019.6 1015.0
14 22.05 С 3 20 км н/о +20.2 +13.9 67 +23 +23 комфорт 1019.3 1014.7
15 22.05 С 4
{8}
20 км н/о +20.7 +11.6 56 +23 +23 комфорт 1018.6 1014.0
16 22.05 С 3 20 км н/о +20.5 +12.7 61 +23 +23 комфорт 1018.2 1013.6
17 22.05 С 3 20 км н/о +21.2 +12.3 57 +23 +23 комфорт 1017.9 1013.3
18 22.05 С 3
{8}
20 км н/о +21.5 +12.9 58 +24 +24 комфорт 1017.6 1013.0 +11.9 +21.7
19 22.05 С 2 19 км н/о +20.4 +12.4 60 +23 +23 комфорт 1017.7 1013.1
20 22.05 СВ 1 17 км н/о +17.3 +12.4 73 +18 +18 1017.8 1013.2
21 22.05 В 2
{4}
20 км н/о +17.7 +11.9 69 +18 +18 1017.9 1013.3
22 22.05 В 2 20 км н/о +17.8 +12.0 69 +19 +19 1017.8 1013.2
23 22.05 В 2 20 км н/о +17.4 +12.1 71 +18 +18 1017.7 1013.1
00 23.05 В 2
{4}
20 км н/о +16.4 +11.5 73 +17 +17 1017.6 1013.0
01 23.05 В 2 20 км н/о +15.5 +11.1 75 +16 +16 1017.2 1012.5
02 23.05 В 2 20 км н/о +15.5 +11.3 76 +16 +16 1017.0 1012.3
03 23.05 В 2
{5}
20 км н/о +15.4 +10.8 74 +16 +16 1016.7 1012.0
04 23.05 В 2 20 км н/о +15.5 +10.3 71 +15 +15 1016.8 1012.1
05 23.05 В 1 20 км н/о +14.6 +9.4 71 +15 +15 1016.9 1012.2
06 23.05 В 1
{5}
20 км н/о +16.3 +10.4 68 +17 +17 1017.0 1012.4 +14.5 +21.5
07 23.05 ЮВ 1 20 км н/о +18.6 +11.7 64 +20 +20 1017.4 1012.8
08 23.05 ЮЗ 1 20 км 10/10
[]
+20.8 +10.9 53 +24 +24 комфорт 1017.5 1012.9
09 23.05 Ю 1
{4}
18 км 10/0
[]
+18.1 +12.5 70 +19 +19 1017.7 1013.1
10 23.05 ЮЗ 1 20 км 10/10
[]
+18.6 +14.1 75 +20 +20 1018.0 1013.4
11 23.05 ЮЗ 1 19 км 10/10
[]
+18.4 +15.1 81 +20 +20 1017.9 1013.3
12 23.05 ЮЗ 2
{4}
17 км 10/0
[]
+17.4 +15.0 86 +18 +18 1017.9 1013.3
13 23.05 Ю 2 19 км 10/1 210 м
[]
+17.2 +15.2 88 +17 +26 1017.3 1012.7
14 23.05 ЮЗ 3 19 км 9/6 180 м
[]
+19.1 +15.8 81 +21 +24 комфорт 1017.4 1012.8
15 23.05 ЮЗ 3
{7}
20 км 10/10 100 м
[]
+18.7 +15.2 80 +20 +20 1017.4 1012.8
16 23.05 З 2 19 км 9/8 210 м
[]
+18.0 +15.3 84 +19 +20 1017.6 1013.0
17 23.05 ЮЗ 2 19 км 10/10
[]
+17.5 +14.9 85 +18 +18 1017.6 1013.0
18 23.05 З 3
{7}
11 км 10/10 100 м
[]
+16.4 +15.1 92 +16 +17 1018.1 1013.5 +16.3 +22.1 0.0
19 23.05 З 2 10 км 9/1 180 м
[]
+16.1 +15.3 95 +16 +16 1018.2 1013.6 0.4
20 23.05 З 3 11 км 10/3 240 м
[]
+15.6 +14.6 94 +15 +15 1018.6 1013.9 0.0
21 23.05 З 3
{7}
9000 м 10/10 100 м
[]
+15.8 +14.8 94 +15 +15 1019.1 1014.4 0.4
22 23.05 З 4 10 км 10/9 210 м
[]
+15.6 +14.6 94 +15 +15 1019.1 1014.4
23 23.05 З 4 13 км 10/6 240 м
[]
+15.2 +14.1 93 +14 +14 1019.1 1014.4
00 24.05 З 3
{9}
13 км 10/10 200 м
[]
+15.2 +14.1 93 +14 +14 1019.0 1014.3
01 24.05 З 3 17 км 10/4 270 м
[]
+15.0 +13.5 91 +14 +14 1018.6 1013.9
02 24.05 З 3 17 км 10/9 270 м
[]
+15.1 +13.6 91 +15 +15 1018.3 1013.6
03 24.05 З 3
{7}
18 км 10/10 300 м
[]
+15.0 +13.2 89 +14 +14 1018.1 1013.4
04 24.05 З 3 17 км 10/8 330 м
[]
+14.9 +13.3 90 +14 +14 1017.9 1013.2
05 24.05 З 3 17 км 10/10 330 м
[]
+15.2 +13.4 89 +14 +14 1018.3 1013.6
06 24.05 СЗ 3
{6}
17 км 10/10 300 м
[]
+15.4 +13.4 88 +15 +15 1018.6 1013.9 +14.8 +16.4 0.4
07 24.05 СЗ 3 18 км 10/10 300 м
[]
+15.6 +12.9 84 +15 +15 1019.1 1014.4
08 24.05 СЗ 3 18 км 10/10 360 м
[]
+15.7 +13.0 84 +15 +15 1019.2 1014.5
09 24.05 СЗ 2
{5}
19 км 10/10 1000 м
[]
+16.4 +13.3 82 +17 +19 1019.1 1014.5
10 24.05 СЗ 3 18 км 10/10 360 м
[]
+17.4 +14.1 81 +18 +18 1019.3 1014.7
11 24.05 СЗ 4 19 км 10/10 360 м
[]
+17.6 +13.5 77 +17 +17 1019.5 1014.9
12 24.05 СЗ 3
{8}
19 км 9/9 300 м
[]
+18.1 +13.6 75 +18 +25 1019.5 1014.9
13 24.05 СЗ 3 19 км 8/8 360 м
[]
+18.2 +13.5 74 +19 +22 1019.2 1014.6
14 24.05 З 3 19 км 9/9 300 м
[]
+18.8 +14.7 77 +20 +22 1019.1 1014.5
15 24.05 СЗ 4
{9}
19 км 9/9 300 м
[]
+17.1 +13.6 80 +17 +17 1019.2 1014.6
16 24.05 СЗ 4 17 км 10/10 420 м
[]
+16.6 +13.3 81 +16 +16 1019.1 1014.5
17 24.05 СЗ 4 19 км 10/10 480 м
[]
+17.3 +13.6 79 +17 +17 1018.9 1014.3
18 24.05 СЗ 4
{10}
19 км н/о +17.0 +11.9 72 +17 +17 1019.1 1014.5 +15.3 +19.3
19 24.05 СЗ 4 19 км н/о +16.0 +12.2 78 +15 +15 1019.6 1014.9
20 24.05 СЗ 4 18 км 8/8 450 м
[]
+15.3 +12.6 84 +14 +14 1020.0 1015.3
21 24.05 СЗ 5
{10}
20 км 10/10 300 м
[]
+15.2 +12.3 83 +14 +14 1020.8 1016.1
22 24.05 СЗ 4 19 км н/о +15.3 +12.8 85 +14 +14 1020.9 1016.2
23 24.05 СЗ 4 15 км 10/10 400 м
[]
+15.5 +13.2 86 +15 +15 1021.0 1016.3
00 25.05 СЗ 4
{9}
17 км 10/10 300 м
[]
+15.4 +13.4 88 +14 +14 1020.6 1015.9
01 25.05 СЗ 4 16 км 10/10 330 м
[]
+15.4 +13.6 89 +14 +14 1020.3 1015.6
02 25.05 СЗ 4 14 км 10/10 300 м
[]
+15.5 +13.9 90 +14 +14 1020.3 1015.6
03 25.05 СЗ 4
{10}
14 км 10/10 200 м
[]
+15.6 +14.0 90 +15 +15 1020.3 1015.6
04 25.05 СЗ 3 12 км 10/10 240 м
[]
+15.5 +14.2 92 +15 +15 1020.4 1015.7
05 25.05 С 3 11 км 8/3 360 м
[]
+15.1 +13.6 91 +15 +15 1020.7 1016.0
06 25.05 С 2
{5}
7000 м 9/9 1000 м
[]
+15.4 +12.3 82 +15 +16 1021.3 1016.6 +14.9 +17.2
07 25.05 С 2 16 км 10/5 1380 м
[]
+16.1 +10.6 70 +16 +17 1021.9 1017.2
08 25.05 С 3 19 км 10/3 1380 м
[]
+15.6 +11.2 75 +15 +18 1022.4 1017.7
09 25.05 С 3
{8}
20 км н/о +17.4 +12.5 73 +17 +17 1022.7 1018.1
10 25.05 С 3 20 км н/о +18.2 +12.6 70 +19 +19 1022.7 1018.1
11 25.05 СЗ 3 20 км н/о +18.5 +12.9 70 +19 +19 1023.1 1018.5
12 25.05 СЗ 3
{9}
20 км н/о +18.3 +12.5 69 +19 +19 1023.0 1018.4
13 25.05 СЗ 4 20 км 9/9 480 м
[]
+17.5 +12.6 73 +17 +19 1023.1 1018.5
14 25.05 СЗ 4 19 км 8/8 500 м
[]
+18.1 +12.3 69 +18 +20 1023.0 1018.4
15 25.05 СЗ 7
{10}
20 км н/о +18.4 +11.2 63 +18 +18 1022.9 1018.3
16 25.05 СЗ 7
{9}
20 км н/о +17.2 +10.3 64 +16 +16 1023.1 1018.4
17 25.05 СЗ 4 20 км 9/9 600 м
[]
+16.2 +10.7 70 +16 +16 1023.0 1018.3
18 25.05 СЗ 7
{8}
20 км 9/9 600 м
[]
+15.9 +10.9 72 +14 +15 1022.9 1018.2 +15.4 +18.9
19 25.05 СЗ 4 20 км 9/9 570 м
[]
+15.4 +11.6 78 +15 +15 1023.2 1018.5
20 25.05 СЗ 3 20 км 10/10 570 м
[]
+15.4 +11.6 78 +15 +15 1023.4 1018.7
21 25.05 СЗ 4
{9}
19 км 10/10 300 м
[]
+15.1 +11.7 80 +14 +14 1023.9 1019.2
22 25.05 СЗ 4 20 км 10/10 570 м
[]
+15.1 +11.1 77 +14 +14 1023.9 1019.2

 

Местоположение метеостанции Бискарросс (Франция): широта 44.43 долгота -1.25 высота над уровнем моря 39 м.

В архиве по умолчанию представлена погода в Бискарроссе за последнюю неделю. Архивные данные за месяц целиком и за предыдущие месяцы, начиная с января 2011 года, Вы можете получить, выбрав интересующий диапазон дат из раскрывающегося списка и нажав кнопку "Ввод!".


*Определитесь, кто Вы:
робот инопланетянин человек

Внимание! Время в таблицах - всемирное. Для получения местного времени необходимо прибавить поправку, которая равна 1 ч.

Смотрите также архив погоды в соседних городах и на ближайших метеорологических станциях:

Погода в Казо (Франция) (15 км)
Погода в Леж-Кап-Ферре (Франция) (22 км)
Погода в Бордо (Франция) (63 км)
Погода в Мон-де-Марсане (Франция) (82 км)
Погода в Даксе (Франция) (85 км)
Погода в Биаррице (Франция) (109 км)
Погода в Сибуре (Франция) (120 км)
Погода Сан-Себастьян аэропорту (Испания) (128 км)
Погода в По (Франция) (134 км)
Погода в Сан-Себастьяне (Испания) (140 км)

Пояснения к столбцам:

Ветер - указаны скорость ветра в м/с - средняя за 10 мин, порывы в срок и между сроками (в фигурных скобках) и направление, откуда дует ветер: С - северный, СВ - северо-восточный, В - восточный, ЮВ - юго-восточный, Ю - южный, ЮЗ - юго-западный, З - западный, СЗ - северо-западный.
Видимость - горизонтальная дальность видимости в метрах или километрах. При видимости от 1 до 10 км при отсутствии осадков обычно наблюдается дымка, при ухудшении видимости до 1 км и менее - туман. В сухую погоду видимость может ухудшаться дымом, пылью или мглою.
Явления - указаны атмосферные явления, наблюдавшиеся в срок или в последний час перед сроком; фигурными скобками обозначены явления, наблюдавшиеся между сроками (за 1-3 часа до срока); квадратными скобками обозначены град или гололедные отложения с указанием их диаметра в мм.
Облачность - указаны через наклонную черту общая и нижняя облачность в баллах и высота нижней границы облаков в метрах; квадратными скобками обозначены формы облаков: Ci - перистые, Cs - перисто-слоистые, Cc - перисто-кучевые, Ac - высококучевые, As - высокослоистые, Sc - слоисто-кучевые, Ns - слоисто-дождевые, Cu - кучевые, Cb - кучево-дождевые. Подробнее классификацию облаков см. в Атласе облаков (PDF).
T - Температура воздуха - температура, измеренная на высоте 2 м над землей.
Td - Температура точки росы - температура, при понижении до которой содержащийся в воздухе водяной пар достигнет насыщения.
f - Относительная влажность воздуха - влажноcть воздуха, измеренная на высоте 2 м над землей.
Te - Эффективная температура - температура, которую ощущает одетый по сезону человек в тени. Характеристика душности погоды. При расчете учитывается влияние влажности воздуха и скорости ветра на теплоощущения человека.
Tes - Эффективная температура на солнце - температура, которую ощущает человек, с поправкой на солнечный нагрев. Характеристика знойности погоды. Зависит от высоты солнца над горизонтом, облачности и скорости ветра. Ночью, в пасмурную погоду, а также при ветре 12 м/с и более поправка равна нулю.
P - Атмосферное давление - приведенное к уровню моря атмосферное давление.
Po - Атмосферное давление - измеренное на уровне метеостанции атмосферное давление.
Tmin - Минимальная температура - минимум температуры воздуха на высоте 2 м над землей.
Tmax - Максимальная температура - максимум температуры воздуха на высоте 2 м над землей.
R - Количество осадков - Количество выпавших осадков за период времени, мм. При наведении курсора мыши на число - период времени, за который выпало указанное количество осадков.
R24 - Количество осадков - Количество выпавших осадков за 24 часа, мм.
S - Снежный покров - Высота снежного покрова, см. При наведении курсора мыши на число - состояние снежного покрова и степень покрытия местности в баллах.